Regional Weather Roundup
Issued by NWS

Home | Current Version | Previous Version | Text Only | Print | Product List | Glossary On
Versions: 1 2 3 4 5 6 7 8 9 10 11 12 13 14 15 16 17 18 19 20 21 22 23 24 25 26 27 28 29 30 31 32 33 34 35 36 37 38 39 40 41 42 43 44 45 46 47 48 49 50
000
ASUS45 KPSR 041100
RWRAZ

ARIZONA HOURLY REGIONAL WEATHER ROUNDUP
NATIONAL WEATHER SERVICE PHOENIX AZ
400 AM MST TUE AUG 04 2015

NOTE: FAIR INDICATES FEW OR NO CLOUDS BELOW 12,000 FEET WITH NO
SIGNIFICANT WEATHER AND/OR OBSTRUCTIONS TO VISIBILITY.

AZZ001>003-036-041200-
NORTHWEST ARIZONA

CITY           SKY/WX    TMP DP  RH WIND       PRES   REMARKS
KINGMAN        CLEAR     75  33  21 S12       29.98R
$$

AZZ004>008-015-016-018-041200-
NORTH CENTRAL ARIZONA

CITY           SKY/WX    TMP DP  RH WIND       PRES   REMARKS
GRAND CANYON   CLEAR     45  37  73 CALM      30.26R
WILLIAMS       CLEAR     52  37  58 S9        30.33R
PRESCOTT       CLEAR     63  44  50 S5        30.14R
FLAGSTAFF      NOT AVBL
PAYSON         CLEAR     68  43  40 CALM      30.16R
PAGE           CLEAR     75  45  34 W3        30.06R
$$

AZZ009>014-017-041200-
NORTHEAST ARIZONA

CITY           SKY/WX    TMP DP  RH WIND       PRES   REMARKS
WINSLOW        NOT AVBL
SAINT JOHNS    CLEAR     61  48  62 S5        30.19S
$$

AZZ023-041200-
GREATER PHOENIX AREA

CITY           SKY/WX    TMP DP  RH WIND       PRES   REMARKS
PHOENIX        CLEAR     94  49  21 W9        29.80R
LUKE AFB       CLEAR     88  52  29 W5        29.80R
DEER VALLEY    CLEAR     82  45  27 CALM      29.83R
SCOTTSDALE     CLEAR     89  49  25 CALM      29.85R
$$

AZZ027-028-041200-
SOUTHWEST MARICOPA COUNTY AND PINAL COUNTY

CITY           SKY/WX    TMP DP  RH WIND       PRES   REMARKS
CASA GRANDE    CLEAR     84  55  37 CALM      29.85R
GILA BEND      FAIR      84  50  30 S7        29.80R
$$

AZZ503-504-507>509-041200-
SOUTHEAST ARIZONA

CITY           SKY/WX    TMP DP  RH WIND       PRES   REMARKS
TUCSON         CLEAR     80  61  52 S3        29.97R
DAVIS-MONTHAN  CLEAR     78  62  56 S6        29.96R
NOGALES        CLEAR     67  60  78 CALM      30.06R
SIERRA VISTA   CLEAR     71  55  58 W10       30.12R
SAFFORD        CLEAR     76  45  33 CALM      29.96R
$$

AZZ020-021-025-026-031-041200-
SOUTHWEST ARIZONA

CITY           SKY/WX    TMP DP  RH WIND       PRES   REMARKS
YUMA           NOT AVBL
$$

CAZ031-033-041-043-047-048-061-041200-
SOUTHERN CALIFORNIA

CITY           SKY/WX    TMP DP  RH WIND       PRES   REMARKS
DOWNTOWN L.A.  CLEAR     68  61  78 CALM      29.87R
L.A. AIRPORT   PTCLDY    68  62  81 CALM      29.88R
SAN DIEGO      MOCLDY    70  64  81 VRB5      29.89S
BURBANK        CLEAR     70  58  65 CALM      29.89R
ONTARIO        PTCLDY    69  58  67 E3        29.89S
RIVERSIDE      CLEAR     69  61  75 CALM      29.89S
PALM SPRINGS   CLEAR     80  57  45 S5        29.77S
EL CENTRO NAS  CLEAR     78  45  30 CALM      29.74R
IMPERIAL       CLEAR     77  55  46 SW5       29.72R
BLYTHE         CLEAR     86  46  24 S6        29.75S
$$

NVZ020-UTZ003-041200-
SOUTHERN NEVADA-UTAH

CITY           SKY/WX    TMP DP  RH WIND       PRES   REMARKS
LAS VEGAS      NOT AVBL
SALT LAKE CITY PTCLDY    60  54  80 SE6       30.08S
$$

NMZ009-TXZ055-041200-
NEW MEXICO-WEST TEXAS

CITY           SKY/WX    TMP DP  RH WIND       PRES   REMARKS
ALBUQUERQUE    PTCLDY    68  48  48 CALM      30.15S
EL PASO        PTCLDY    74  60  61 S9        30.05R
$$


........................KEY........................
SKY/WX - SKY CONDITION/WEATHER
TMP    - TEMPERATURE IN FAHRENHEIT
DP     - DEW POINT IN FAHRENHEIT
RH     - RELATIVE HUMIDITY IN PERCENT
WIND   - DIRECTION AND SPEED IN MILES PER HOUR (MPH)
VRB    - VARIABLE WIND DIRECTION
PRES   - MEAN SEA LEVEL PRESSURE IN INCHES OF MERCURY
         F - FALLING PRESSURE   R - RISING PRESSURE
         S - STEADY PRESSURE
VSB    - VISIBILITY IN MILES
HX     - HEAT INDEX IN FAHRENHEIT
WCI    - WIND CHILL INDEX IN FAHRENHEIT
TC     - TEMPERATURE IN CELSIUS WHICH IS ALSO KNOWN AS
         TEMPERATURE IN CENTIGRADE
AFB    - AIR FORCE BASE
         LUKE AFB IS LUKE AIR FORCE BASE
         DAVIS-MONTHAN IS DAVIS-MONTHAN AIR FORCE BASE
NAS    - NAVAL AIR STATION
         EL CENTRO NAS IS EL CENTRO NAVAL AIR STATION
N/A    - NOT AVAILABLE



USA.gov is the U.S. government's official web portal to all federal, state and local government web resources and services.